Hayward, WI

1:14 PM CST on November 21, 2019 (GMT -0600)
Sawyer County

Weather History for KHYR - September, 2019

Change the Weather History Date:

Thursday, September 19, 2019

  Actual Average Record
Temperature  
Mean Temperature 68 °F -  
Max Temperature 81 °F 85 °F 87 °F (1998)
Min Temperature 54 °F 54 °F 30 °F (1996)
Cooling Degree Days 2    
Growing Degree Days 18 (Base 50)    
Moisture  
Dew Point 59 °F    
Average Humidity 86    
Maximum Humidity 97    
Minimum Humidity 50    
Precipitation  
Precipitation 0.00 in - - ()
Sea Level Pressure  
Sea Level Pressure 30.00 in    
Wind  
Wind Speed 3 mph (South)    
Max Wind Speed 9 mph    
Max Gust Speed -    
Visibility 5 miles    
Events Fog    
Averages and records for this station are not official NWS values.
T = Trace of Precipitation, MM = Missing Value Source: NWS Daily Summary

Daily Weather History Graph

Daily Weather History Graph

Search for Another Location

Airport or City:

Astronomy

Sep. 19, 2019 Rise Set
Actual Time 6:48 AM CDT 7:09 PM CDT
Civil Twilight 6:18 AM CDT 7:39 PM CDT
Nautical Twilight 5:43 AM CDT 8:14 PM CDT
Astronomical Twilight 5:06 AM CDT 8:51 PM CDT
Moon 10:02 PM CDT (9/19) 12:08 PM CDT (9/19)
Length of Visible Light 13h 20m
Length of Day
12h 20m
Waning Gibbous, 74% of the Moon is Illuminated
Sep 19
Waning Gibbous
Sep 21
Last Quarter
Sep 28
New
Oct 5
First Quarter
Oct 13
Full

Hourly Weather History & Observations

Time (CDT) Temp. Heat Index Dew Point Humidity Pressure Visibility Wind Dir Wind Speed Gust Speed Precip Events Conditions
12:53 AM 64.0 °F - 62.1 °F 93% 29.96 in 6.0 mi SSW 5.8 mph - N/A   Clear
1:34 AM 63.0 °F - 62.1 °F 97% 29.96 in 1.5 mi SSW 3.5 mph - N/A   Clear
1:36 AM 63.0 °F - 61.0 °F 93% 29.96 in 0.8 mi SSW 3.5 mph - N/A   Clear
1:53 AM 60.1 °F - 59.0 °F 96% 29.96 in 0.2 mi SSW 3.5 mph - N/A Fog Fog
2:01 AM 62.1 °F - 61.0 °F 96% 29.96 in 0.2 mi Calm Calm - N/A Fog Fog
2:30 AM 60.1 °F - 59.0 °F 96% 29.96 in 1.5 mi Calm Calm - N/A   Scattered Clouds
2:35 AM 60.1 °F - 59.0 °F 96% 29.96 in 3.0 mi Calm Calm - N/A   Partly Cloudy
2:48 AM 60.8 °F - 57.2 °F 88% 29.96 in 1.5 mi Calm Calm - N/A   Partly Cloudy
2:51 AM 60.8 °F - 59.0 °F 94% 29.96 in 0.8 mi Calm Calm - N/A   Clear
2:53 AM 61.0 °F - 59.0 °F 93% 29.95 in 0.5 mi Calm Calm - N/A Fog Fog
3:53 AM 55.9 °F - 55.0 °F 97% 29.95 in 0.2 mi Calm Calm - N/A Fog Fog
4:48 AM 55.4 °F - 53.6 °F 94% 29.95 in 1.2 mi Calm Calm - N/A   Mostly Cloudy
4:53 AM 55.0 °F - 54.0 °F 96% 29.95 in 2.0 mi Calm Calm - N/A   Scattered Clouds
4:55 AM 55.0 °F - 54.0 °F 96% 29.95 in 0.8 mi Calm Calm - N/A   Mist
5:33 AM 55.0 °F - 53.1 °F 93% 29.97 in 2.0 mi Calm Calm - N/A   Overcast
5:38 AM 55.0 °F - 54.0 °F 96% 29.97 in 0.8 mi Calm Calm - N/A   Mist
5:53 AM 54.0 °F - 53.1 °F 97% 29.97 in 0.2 mi Calm Calm - N/A Fog Fog
6:53 AM 54.0 °F - 53.1 °F 97% 30.00 in 0.2 mi NE 4.6 mph - N/A Fog Fog
7:48 AM 57.2 °F - 55.4 °F 94% 30.02 in 2.0 mi Calm Calm - N/A   Mostly Cloudy
7:53 AM 57.0 °F - 55.0 °F 93% 30.02 in 3.0 mi Calm Calm - N/A   Scattered Clouds
8:53 AM 61.0 °F - 60.1 °F 97% 30.01 in 3.0 mi Calm Calm - N/A   Clear
9:53 AM 68.0 °F - 64.0 °F 87% 30.02 in 10.0 mi Calm Calm - N/A   Clear
10:53 AM 72.0 °F - 62.1 °F 71% 30.03 in 10.0 mi South 6.9 mph - N/A   Clear
11:53 AM 75.0 °F - 63.0 °F 66% 30.02 in 10.0 mi South 6.9 mph - N/A   Clear
12:53 PM 77.0 °F - 63.0 °F 62% 30.01 in 10.0 mi SSW 8.1 mph - N/A   Clear
1:53 PM 79.0 °F - 62.1 °F 56% 30.01 in 10.0 mi Variable 5.8 mph - N/A   Clear
2:53 PM 80.1 °F 81.5 °F 63.0 °F 56% 29.99 in 10.0 mi SSW 9.2 mph - N/A   Partly Cloudy
3:53 PM 81.0 °F 81.7 °F 61.0 °F 50% 30.00 in 10.0 mi Variable 4.6 mph - N/A   Clear
4:53 PM 80.1 °F 81.2 °F 62.1 °F 54% 30.00 in 10.0 mi SSW 4.6 mph - N/A   Clear
5:53 PM 79.0 °F - 62.1 °F 56% 30.00 in 10.0 mi SSW 3.5 mph - N/A   Clear
6:53 PM 72.0 °F - 64.9 °F 78% 30.02 in 10.0 mi Calm Calm - N/A   Clear
7:53 PM 66.9 °F - 63.0 °F 87% 30.04 in 10.0 mi Calm Calm - N/A   Clear
8:53 PM 64.0 °F - 62.1 °F 93% 30.05 in 4.0 mi Calm Calm - N/A   Clear
9:00 PM 64.0 °F - 62.1 °F 93% 30.05 in 1.8 mi Calm Calm - N/A   Clear
9:09 PM 63.0 °F - 61.0 °F 93% 30.05 in 3.0 mi Calm Calm - N/A   Clear
9:53 PM 61.0 °F - 59.0 °F 93% 30.06 in 9.0 mi NNE 3.5 mph - N/A   Clear
10:12 PM 63.0 °F - 61.0 °F 93% 30.07 in 6.0 mi NNE 4.6 mph - N/A   Clear
10:53 PM 61.0 °F - 59.0 °F 93% 30.06 in 6.0 mi North 3.5 mph - N/A   Partly Cloudy
11:53 PM 62.1 °F - 59.0 °F 90% 30.06 in 8.0 mi ENE 3.5 mph - N/A   Scattered Clouds